This demonstration page uses our WeatherBlox Daily Observations layout. Learn more.

Hourly Observations for June 29, 2019

Temp ( °F °C ) Dew Point ( °F °C ) Humidity (%) Winds ( mph kmh ) Pressure ( in mb ) Visibility ( mi km ) Precip ( " mm )
12:15 am 00:15 Clear 74 23.4 67 19.3 78 78 SSE 6 9 29.97 1015 10 16.09344 0 0
12:35 am 00:35 Clear 74 23.6 67 19.2 76 76 S 5 7 29.97 1015 10 16.09344 0 0
12:55 am 00:55 Clear 77 25 66 19 69 69 S 7 11 29.94 1014 10 16.09344 0 0
1:15 am 01:15 Clear 78 25.5 66 19 67 67 S 8 13 29.94 1014 10 16.09344 0 0
1:35 am 01:35 Clear 75 23.8 66 19.1 75 75 SSE 6 9 29.94 1014 10 16.09344 0 0
1:55 am 01:55 Clear 73 22.6 66 19.1 81 81 SSE 5 7 29.97 1015 10 16.09344 0 0
2:15 am 02:15 Clear 73 22.8 67 19.2 80 80 SSE 5 7 29.97 1015 10 16.09344 0 0
2:35 am 02:35 Clear 73 22.8 67 19.3 81 81 S 6 9 29.94 1014 10 16.09344 0 0
2:55 am 02:55 Clear 74 23.2 67 19.2 78 78 S 5 7 29.94 1014 10 16.09344 0 0
3:15 am 03:15 Clear 75 23.8 67 19.2 76 76 SSW 7 11 29.91 1013 10 16.09344 0 0
3:35 am 03:35 Clear 74 23.4 67 19.2 77 77 S 5 7 29.91 1013 10 16.09344 0 0
3:55 am 03:55 Clear 73 22.5 66 19.1 81 81 S 5 7 29.94 1014 10 16.09344 0 0
4:15 am 04:15 Clear 69 20.7 66 19.1 91 91 SE 3 6 29.94 1014 10 16.09344 0 0
4:35 am 04:35 Clear 70 21 67 19.5 91 91 SSE 3 6 29.94 1014 10 16.09344 0 0
4:55 am 04:55 Clear 71 21.5 67 19.5 88 88 S 5 7 29.94 1014 10 16.09344 0 0
5:15 am 05:15 Clear 73 22.8 67 19.5 82 82 S 6 9 29.94 1014 10 16.09344 0 0
5:35 am 05:35 Clear 70 21 67 19.5 91 91 SSE 5 7 29.97 1015 10 16.09344 0 0
5:55 am 05:55 Clear 70 21.1 67 19.5 91 91 SE 5 7 29.97 1015 10 16.09344 0 0
6:15 am 06:15 Sunny 71 21.5 67 19.6 89 89 SSE 5 7 29.97 1015 10 16.09344 0 0
6:35 am 06:35 Sunny 70 21.2 67 19.6 91 91 S 3 6 29.97 1015 10 16.09344 0 0
6:55 am 06:55 Sunny 71 21.8 67 19.7 88 88 S 6 9 29.97 1015 10 16.09344 0 0
7:15 am 07:15 Sunny 73 22.6 68 20 85 85 S 6 9 29.97 1015 10 16.09344 0 0
7:35 am 07:35 Sunny 74 23.5 68 20 81 81 S 7 11 29.97 1015 10 16.09344 0 0
7:55 am 07:55 Sunny 76 24.2 68 20.2 78 78 S 7 11 29.94 1014 10 16.09344 0 0
8:15 am 08:15 Sunny 77 25 69 20.3 75 75 S 7 11 29.94 1014 10 16.09344 0 0
8:35 am 08:35 Sunny 78 25.6 69 20.4 73 73 S 8 13 29.94 1014 10 16.09344 0 0
8:55 am 08:55 Sunny 79 26.3 69 20.5 71 71 SSE 8 13 29.94 1014 10 16.09344 0 0
9:15 am 09:15 Sunny 81 27.1 69 20.5 67 67 S 9 15 29.94 1014 10 16.09344 0 0
9:35 am 09:35 Sunny 82 27.5 69 20.3 65 65 S 8 13 29.91 1013 10 16.09344 0 0
9:55 am 09:55 Sunny 82 28 69 20.4 63 63 S 10 17 29.91 1013 10 16.09344 0 0
10:15 am 10:15 Sunny 83 28.5 70 21 64 64 SSE 10 17 29.91 1013 10 16.09344 0 0
10:35 am 10:35 Sunny 84 29.1 69 20.3 59 59 S 12 19 29.88 1012 10 16.09344 0 0
10:55 am 10:55 Sunny 85 29.3 69 20.5 59 59 S 10 17 29.88 1012 10 16.09344 0 0
11:15 am 11:15 Sunny 86 30 69 20.6 57 57 S 10 17 29.88 1012 10 16.09344 0 0
11:35 am 11:35 Sunny 87 30.5 69 20.8 56 56 SSE 10 17 29.88 1012 10 16.09344 0 0
11:55 am 11:55 Sunny 88 31 69 20.6 54 54 S 13 20 29.85 1011 10 16.09344 0 0
1:15 pm 13:15 Sunny 92 33.3 70 21.2 49 49 SSE 12 19 29.85 1011 10 16.09344 0 0
1:35 pm 13:35 Sunny 93 33.7 70 21 47 47 S 15 24 29.85 1011 10 16.09344 0 0
1:55 pm 13:55 Sunny 94 34.3 70 21.2 46 46 SSE 15 24 29.85 1011 10 16.09344 0 0
2:15 pm 14:15 Sunny 94 34.5 69 20.3 43 43 SSE 15 24 29.85 1011 10 16.09344 0 0
2:35 pm 14:35 Sunny 95 35.2 68 20.1 41 41 S 16 26 29.83 1010 10 16.09344 0 0
2:55 pm 14:55 Sunny 97 36 65 18.6 36 36 S 16 26 29.83 1010 10 16.09344 0 0
3:15 pm 15:15 Sunny 97 36 66 19.1 37 37 SSE 16 26 29.8 1009 10 16.09344 0 0
3:35 pm 15:35 Sunny 97 36 65 18.5 36 36 S 16 26 29.8 1009 10 16.09344 0 0
3:55 pm 15:55 Sunny 97 36.2 66 19 36 36 SSE 16 26 29.8 1009 10 16.09344 0 0
4:15 pm 16:15 Sunny 97 36.1 65 18.5 35 35 SSE 15 24 29.8 1009 10 16.09344 0 0
4:35 pm 16:35 Sunny 97 36 66 18.8 36 36 SSE 14 22 29.8 1009 10 16.09344 0 0
4:55 pm 16:55 Sunny 97 36.1 65 18.3 35 35 S 13 20 29.8 1009 10 16.09344 0 0
5:15 pm 17:15 Sunny 97 36 65 18.2 35 35 SSE 16 26 29.8 1009 10 16.09344 0 0
5:35 pm 17:35 Sunny 96 35.8 66 18.7 36 36 SSE 14 22 29.8 1009 10 16.09344 0 0
5:55 pm 17:55 Sunny 96 35.6 66 18.8 37 37 SSE 13 20 29.8 1009 10 16.09344 0 0
6:15 pm 18:15 Sunny 96 35.3 65 18.5 37 37 SSE 14 22 29.8 1009 10 16.09344 0 0
6:35 pm 18:35 Sunny 95 35 66 18.8 38 38 SSE 10 17 29.8 1009 10 16.09344 0 0
6:55 pm 18:55 Sunny 94 34.4 67 19.5 41 41 SSE 10 17 29.83 1010 10 16.09344 0 0
7:15 pm 19:15 Sunny 93 33.7 67 19.6 43 43 SSE 10 17 29.83 1010 10 16.09344 0 0
7:35 pm 19:35 Sunny 92 33.1 67 19.5 45 45 SSE 10 17 29.83 1010 10 16.09344 0 0
7:55 pm 19:55 Sunny 90 32.1 68 20.1 49 49 SE 9 15 29.83 1010 10 16.09344 0 0
8:15 pm 20:15 Sunny 88 31.2 68 20.2 52 52 SE 9 15 29.83 1010 10 16.09344 0 0
8:35 pm 20:35 Sunny 86 30.1 68 20 55 55 SE 8 13 29.85 1011 10 16.09344 0 0
8:55 pm 20:55 Sunny 84 28.9 68 20 59 59 SE 9 15 29.85 1011 10 16.09344 0 0
9:15 pm 21:15 Clear 83 28.2 67 19.5 59 59 SSE 8 13 29.85 1011 10 16.09344 0 0
9:35 pm 21:35 Clear 82 27.7 66 19 59 59 SSE 8 13 29.85 1011 10 16.09344 0 0
9:55 pm 21:55 Clear 82 27.5 66 19 60 60 SSE 7 11 29.88 1012 10 16.09344 0 0
10:15 pm 22:15 Clear 81 27.1 66 19 61 61 SSE 7 11 29.88 1012 10 16.09344 0 0
10:35 pm 22:35 Clear 80 26.6 66 19 63 63 SSE 7 11 29.91 1013 10 16.09344 0 0
10:55 pm 22:55 Clear 79 26.1 66 19 65 65 SSE 7 11 29.91 1013 10 16.09344 0 0
11:15 pm 23:15 Clear 79 25.9 66 19 66 66 SSE 7 11 29.91 1013 10 16.09344 0 0
11:35 pm 23:35 Clear 78 25.7 66 19.1 67 67 SSE 8 13 29.91 1013 10 16.09344 0 0
11:55 pm 23:55 Clear 78 25.5 67 19.2 68 68 SSE 7 11 29.94 1014 10 16.09344 0 0

Powered by AerisWeather